Tracking 26951 objects as of 4-Feb-2023
HD Live streaming from Space Station
objects crossing your sky now

TELECOM 1A

Track TELECOM 1A now!
TELECOM 1A is classified as:


NORAD ID: 15159
Int'l Code: 1984-081B
Perigee: 36,175.2 km
Apogee: 36,481.4 km
Inclination: 14.1 °
Period: 1,463.5 minutes
Semi major axis: 42699 km
RCS: 10.2909 m2 (large)
Launch date: August 4, 1984
Source: France (FR)
Launch site: FRENCH GUIANA (FRGUI)
Your satellite tracking list
Your tracking list is empty




NASA's NSSDC Master Catalog

Two Line Element Set (TLE):
1 15159U 84081B   23034.44581434  .00000007  00000-0  00000-0 0  9994
2 15159  14.1129 342.6546 0035855  23.4739 349.6315  0.98394566106519
Source of the keplerian elements: AFSPC